{"data":{"norad_id":57407,"intl_designator":"2023-102D","name":"STARLINK-30207","alt_names":[],"object_type":"PAYLOAD","status":"ACTIVE","operator":null,"country":"US","launch_date":"2023-07-20","launch_site_code":"AFWTR","launch_vehicle":null,"mission":null,"orbit_class":"UNKNOWN","rcs_meters":null,"size_class":null,"mass_kg":null,"dimensions":null,"purposes":["comms"],"wikipedia_slug":null,"has_3d_model":false,"image_url":null,"decayed_at":null,"tle_current":{"epoch":"2026-05-25T02:15:22.127040Z","epoch_age_seconds":77294,"freshness":"FRESH","line1":"1 57407U 23102D   26145.09400610  .00000439  00000+0  25470-4 0  9996","line2":"2 57407  43.0043 162.5754 0001780 278.6047  81.4603 15.27576998158105","mean_motion":15.27576998,"eccentricity":0.000178,"inclination_deg":43.0043,"raan_deg":162.5754,"arg_perigee_deg":278.6047,"mean_anomaly_deg":81.4603,"bstar":2.547e-5,"rev_number":15810,"period_min":94.266933967017,"perigee_km":481.83679239719,"apogee_km":484.27937784749,"semimajor_km":6861.1950851223,"source":"CELESTRAK","updated_at":"2026-05-25T13:38:18.297898Z"}}}